{"data":{"norad_id":67101,"epoch":"2026-05-25T03:07:28.435872Z","epoch_age_seconds":57585,"freshness":"FRESH","line1":"1 67101U 25298AC  26145.13019023  .00002382  00000+0  20733-3 0  9990","line2":"2 67101  70.0012 181.8722 0003918 265.4155  94.6557 14.98337332 24662","mean_motion":14.98337332,"eccentricity":0.0003918,"inclination_deg":70.0012,"raan_deg":181.8722,"arg_perigee_deg":265.4155,"mean_anomaly_deg":94.6557,"bstar":0.00020733,"rev_number":2466,"period_min":96.106528833388,"perigee_km":569.3101407405,"apogee_km":574.75629412288,"semimajor_km":6950.1702174317,"source":"CELESTRAK","updated_at":"2026-05-25T13:38:21.472056Z"}}